Weather History for Belize, Belize

Change the Weather History Date:

Friday, September 27, 2013

  Actual Average Record
Temperature  
Mean Temperature 84 °F -  
Max Temperature 89 °F 87 °F 91 °F (1998)
Min Temperature 78 °F 73 °F 74 °F (2012)
Cooling Degree Days 18    
Growing Degree Days 34 (Base 50)    
Moisture  
Dew Point 78 °F    
Average Humidity 78    
Maximum Humidity 94    
Minimum Humidity 65    
Precipitation  
Precipitation 0.00 in 0.34 in - ()
Sea Level Pressure  
Sea Level Pressure 29.87 in    
Wind  
Wind Speed 4 mph ()    
Max Wind Speed 10 mph    
Max Gust Speed -    
Visibility 9.1 miles    
Events Rain    
Averages and records for this station are not official NWS values.
T = Trace of Precipitation, MM = Missing Value Source: Averaged Metar Reports

Daily Weather History Graph

Daily Weather History Graph

Search for Another Location

Airport:

Trip Planner

Search our weather history database for the weather conditions in past years. The results will help you decide how hot, cold, wet, or windy it might be!

Date:

Astronomy

Sep. 27, 2013 Rise Set
Actual Time 5:42 AM CST 5:44 PM CST
Civil Twilight 5:21 AM CST 6:06 PM CST
Nautical Twilight 4:56 AM CST 6:31 PM CST
Astronomical Twilight 4:30 AM CST 6:56 PM CST
Moon No Moon Rise 12:38 PM CST (9/27)
Length of Visible Light 12h 45m
Length of Day
12h 02m
Last Quarter, 44% of the Moon is Illuminated
Sep 27
Last Quarter
Oct 4
New
Oct 11
First Quarter
Oct 18
Full
Oct 26
Last Quarter

Hourly Weather History & Observations

Time (CST) Temp. Heat Index Dew Point Humidity Pressure Visibility Wind Dir Wind Speed Gust Speed Precip Events Conditions
3:00 AM 79 °F - 76 °F 88% 29.84 in 12 mi East 3.5 mph - -   Scattered Clouds
5:00 AM 78.8 °F - 77.0 °F 94% 29.85 in 6.2 mi Calm Calm - N/A   Partly Cloudy
6:00 AM 78 °F - 77 °F 94% 29.87 in 16 mi Calm Calm - -   Partly Cloudy
6:00 AM 78.8 °F - 77.0 °F 94% 29.86 in 6.2 mi Calm Calm - N/A   Scattered Clouds
7:00 AM 82.4 °F 92.4 °F 78.8 °F 89% 29.89 in 6.2 mi Calm Calm - N/A   Scattered Clouds
8:00 AM 86.0 °F 96.9 °F 77.0 °F 74% 29.91 in 6.2 mi ESE 5.8 mph - N/A   Scattered Clouds
9:00 AM 87 °F - 78 °F 68% 29.93 in 16 mi East 5.8 mph - -   Partly Cloudy
9:00 AM 87.8 °F 99.7 °F 77.0 °F 70% 29.92 in 6.2 mi East 5.8 mph - N/A   Scattered Clouds
10:00 AM 86.0 °F 99.3 °F 78.8 °F 79% 29.92 in 6.2 mi East 6.9 mph - N/A   Scattered Clouds
11:00 AM 87.8 °F 99.7 °F 77.0 °F 70% 29.90 in 6.2 mi ENE 9.2 mph - N/A   Scattered Clouds
12:00 PM 87 °F - 78 °F 67% 29.89 in 16 mi East 8.1 mph - -   Partly Cloudy
12:00 PM 87.8 °F 99.7 °F 77.0 °F 70% 29.88 in 6.2 mi East 8.1 mph - N/A   Scattered Clouds
1:00 PM 89.6 °F 104.7 °F 78.8 °F 70% 29.86 in 6.2 mi ENE 9.2 mph - N/A   Scattered Clouds
2:00 PM 87.8 °F 102.5 °F 78.8 °F 75% 29.84 in 6.2 mi East 9.2 mph - N/A Rain Light Rain Showers
3:00 PM 88 °F - 78 °F 65% 29.84 in 16 mi East 10.4 mph - - Rain Light Rain Showers
3:00 PM 87.8 °F 102.5 °F 78.8 °F 75% 29.83 in 6.2 mi East 10.4 mph - N/A   Scattered Clouds
4:00 PM 87.8 °F 99.7 °F 77.0 °F 70% 29.83 in 6.2 mi East 8.1 mph - N/A   Partly Cloudy
5:00 PM 86.0 °F 96.9 °F 77.0 °F 74% 29.83 in 6.2 mi East 8.1 mph - N/A   Scattered Clouds
6:00 PM 84 °F - 79 °F 81% 29.85 in 16 mi East 5.8 mph - -   Partly Cloudy
6:00 PM 84.2 °F 94.1 °F 77.0 °F 79% 29.83 in 6.2 mi East 5.8 mph - N/A   Partly Cloudy
9:00 PM 82 °F - 77 °F 80% 29.91 in 16 mi East 4.6 mph - -   Scattered Clouds
9:00 PM 82.4 °F 90.9 °F 77.0 °F 84% 29.89 in 6.2 mi East 4.6 mph - N/A   Partly Cloudy